Flag for French Polynesia Weather past 2 weeks in Papeete, Tahiti, French Polynesia

81 °F

Scattered clouds.

Feels Like: 85 °F
Forecast: 77 / 85 °F
Wind: No wind

Location: Tahiti-Faaa

Current Time: Nov 28, 2015 at 8:33:12 AM

Latest Report: Nov 28, 2015 at 8:00 AM

Visibility: N/A

Pressure: 29.80 "Hg

Humidity: 79%

Dew point: 73 °F

Location of PapeeteLocation

Historic Weather in Papeete — Graph


Papeete temperature yesterday

Maximum temperature yesterday: 82 °F (at 8:00 AM)
Minimum temperature yesterday: 77 °F (at 12:00 AM)
Average temperature yesterday: 78 °F

Past Weeks' High & Low Weather Summary

High90 °F (Nov 16, 4:00 PM)94% (Nov 21, 7:00 AM)29.98 "Hg (Nov 21, 7:00 AM)
Low75 °F (Nov 14, 4:00 AM)55% (Nov 19, 11:30 AM)29.74 "Hg (Nov 28, 3:00 AM)
Average81 °F75%29.87 "Hg
* Reported Nov 13 7:00 AM — Nov 28 7:30 AM, Papeete, Weather by CustomWeather, © 2015

Note: Actual official high and low records may vary slightly from our data, if they occured in-between our weather recording intervals... More about our weather records


Papeete weather history for previous 24 hours

Time TempWeatherWind HumidityBarometerVisibility
7:30 AM
Sat, Nov 28
81 °FScattered clouds.3 mph84%29.80 "HgN/A
7:00 AM79 °FScattered clouds.No wind84%29.80 "HgN/A
6:30 AM79 °FScattered clouds.7 mph89%29.77 "HgN/A
6:00 AM77 °FScattered clouds.No wind89%29.77 "HgN/A
5:30 AM77 °FMostly cloudy.2 mph89%29.74 "HgN/A
5:00 AM77 °FOvercast.5 mph89%29.74 "HgN/A
4:30 AM77 °FMostly cloudy.3 mph89%29.74 "HgN/A
4:00 AM77 °FMostly cloudy.3 mph89%29.74 "HgN/A
3:30 AM77 °FPartly cloudy.2 mph89%29.74 "HgN/A
3:00 AM77 °FPassing clouds.2 mph89%29.74 "HgN/A
2:30 AM77 °FPassing clouds.3 mph89%29.77 "HgN/A
2:00 AM75 °FPassing clouds.6 mph89%29.77 "HgN/A
1:30 AM77 °FPassing clouds.5 mph89%29.77 "HgN/A
1:00 AM77 °FPassing clouds.3 mph89%29.77 "HgN/A
12:30 AM77 °FPassing clouds.2 mph89%29.77 "HgN/A
12:00 AM77 °FScattered showers. Partly cloudy.3 mph89%29.80 "HgN/A
11:30 PM
Fri, Nov 27
77 °FScattered showers. Partly cloudy.7 mph89%29.80 "HgN/A
11:00 PM77 °FScattered showers. Partly cloudy.6 mph89%29.80 "HgN/A
10:30 PM77 °FScattered showers. Partly cloudy.3 mph89%29.80 "HgN/A
10:00 PM77 °FScattered showers. Partly cloudy.3 mph89%29.83 "HgN/A
9:30 PM77 °FScattered showers. Partly cloudy.2 mph89%29.80 "HgN/A
9:00 PM77 °FScattered showers. Partly cloudy.2 mph89%29.80 "HgN/A
8:30 PM77 °FScattered showers. Partly cloudy.3 mph89%29.83 "HgN/A
8:00 PM77 °FScattered showers. Partly cloudy.2 mph89%29.80 "HgN/A
7:30 PM77 °FScattered showers. Partly cloudy.6 mph89%29.80 "HgN/A
7:00 PM77 °FScattered showers. Partly cloudy.6 mph89%29.80 "HgN/A
6:30 PM77 °FPartly cloudy.5 mph94%29.77 "HgN/A
6:00 PM77 °FBroken clouds.2 mph89%29.77 "HgN/A
5:30 PM77 °FLight rain. Broken clouds.1 mph94%29.77 "HgN/A
5:00 PM77 °FLight rain. Broken clouds.3 mph94%29.77 "HgN/A
4:30 PM77 °FLight rain. Broken clouds.8 mph89%29.77 "Hg6 mi
4:00 PM77 °FLight rain. Broken clouds.9 mph89%29.77 "Hg2 mi
3:30 PM77 °FLight rain. Broken clouds.12 mph89%29.77 "HgN/A
2:00 PM77 °FLight rain. Broken clouds.5 mph94%29.77 "Hg4 mi
1:00 PM79 °FPartly sunny.3 mph84%29.80 "HgN/A
12:30 PM79 °FLight rain. Broken clouds.8 mph89%29.80 "HgN/A
12:00 PM81 °FRain. Broken clouds.6 mph79%29.83 "Hg6 mi
11:30 AM82 °FLight rain. Partly sunny.3 mph79%29.83 "HgN/A
11:00 AM82 °FPartly sunny.6 mph74%29.83 "HgN/A
10:30 AM82 °FPartly sunny.5 mph74%29.83 "HgN/A
10:00 AM82 °FPartly sunny.6 mph79%29.83 "HgN/A
9:30 AM82 °FPartly sunny.8 mph74%29.83 "HgN/A
9:00 AM82 °FPartly sunny.7 mph79%29.83 "HgN/A
8:30 AM82 °FPartly sunny.6 mph74%29.83 "HgN/A
8:00 AM82 °FPartly sunny.No wind74%29.83 "HgN/A
Weather by CustomWeather, © 2015

See weather overviewHow to use our weather pages